This is the latest recevied weather packets stored in our database for station/object VK5TRM-13. If no packets are shown the sender has not sent any weather packets the latest 10 day(s).
| Time | Temp. | Humidity | Pressure | Rain* | Wind** | Luminosity | Snow |
|---|---|---|---|---|---|---|---|
| 1778192104 | 12.22° C | 83% | 1029.2 hPa | 0 mm | - | - | - |
| 1778191204 | 11.67° C | 84% | 1028.9 hPa | 0 mm | - | - | - |
| 1778190304 | 11.67° C | 84% | 1028.9 hPa | 0 mm | - | - | - |
| 1778189404 | 11.67° C | 82% | 1028.8 hPa | 0 mm | - | - | - |
| 1778188504 | 11.67° C | 82% | 1028.8 hPa | 0 mm | - | - | - |
| 1778187605 | 11.67° C | 81% | 1028.7 hPa | 0 mm | - | - | - |
| 1778186705 | 11.67° C | 81% | 1028.7 hPa | 0 mm | - | - | - |
| 1778185804 | 11.11° C | 81% | 1028.7 hPa | 0 mm | - | - | - |
| 1778184904 | 11.11° C | 81% | 1028.7 hPa | 0 mm | - | - | - |
| 1778184005 | 11.11° C | 81% | 1028.7 hPa | 0 mm | - | - | - |
| 1778183105 | 11.11° C | 81% | 1028.7 hPa | 0 mm | - | - | - |
| 1778182205 | 11.11° C | 81% | 1028.9 hPa | 0 mm | - | - | - |
| 1778181305 | 11.11° C | 81% | 1028.9 hPa | 0 mm | - | - | - |
| 1778180404 | 10.56° C | 80% | 1028.8 hPa | 0 mm | - | - | - |
| 1778179504 | 10.56° C | 80% | 1028.8 hPa | 0 mm | - | - | - |
| 1778178605 | 10.56° C | 82% | 1028.9 hPa | 0 mm | - | - | - |
| 1778177705 | 10.56° C | 82% | 1028.9 hPa | 0 mm | - | - | - |
| 1778176804 | 10° C | 82% | 1029.1 hPa | 0 mm | - | - | - |
| 1778175904 | 10° C | 82% | 1029.1 hPa | 0 mm | - | - | - |
| 1778175005 | 9.44° C | 84% | 1029.1 hPa | 0 mm | - | - | - |
| 1778174105 | 9.44° C | 84% | 1029.1 hPa | 0 mm | - | - | - |
| 1778173205 | 10° C | 81% | 1029.1 hPa | 0 mm | - | - | - |
| 1778172304 | 10° C | 81% | 1029.1 hPa | 0 mm | - | - | - |
| 1778171404 | 10° C | 82% | 1029.3 hPa | 0 mm | - | - | - |
| 1778170504 | 10° C | 82% | 1029.3 hPa | 0 mm | - | - | - |
* Rain since midnight (hover to see other rain measurements)
** Current wind speed in m/s (hover to see current wind gust speed)